date,time,SUV Intensity [MED/Hr],UV Index,Daily total [MED],Since Last [MED]
29/05/2022,00:08:37,0.000,0.0,0.0,0.0
29/05/2022,00:09:37,0.000,0.0,0.0,0.0
29/05/2022,00:10:36,0.000,0.0,0.0,0.0
29/05/2022,00:11:37,0.000,0.0,0.0,0.0
29/05/2022,00:12:36,0.001,0.0,0.0,0.0
29/05/2022,00:13:37,0.000,0.0,0.0,0.0
29/05/2022,00:14:45,0.000,0.0,0.0,0.0
29/05/2022,00:15:36,0.000,0.0,0.0,0.0
29/05/2022,00:16:36,0.000,0.0,0.0,0.0
29/05/2022,00:17:37,0.001,0.0,0.0,0.0
29/05/2022,00:18:36,0.000,0.0,0.0,0.0
29/05/2022,00:19:37,0.000,0.0,0.0,0.0
29/05/2022,00:20:36,0.000,0.0,0.0,0.0
29/05/2022,00:21:36,0.000,0.0,0.0,0.0
29/05/2022,00:22:36,0.001,0.0,0.0,0.0
29/05/2022,00:23:37,-0.001,0.0,0.0,0.0
29/05/2022,00:24:45,0.000,0.0,0.0,0.0
29/05/2022,00:26:37,-0.001,0.0,0.0,0.0
29/05/2022,00:27:46,0.000,0.0,0.0,0.0
29/05/2022,00:29:38,0.000,0.0,0.0,0.0
29/05/2022,00:30:44,0.001,0.0,0.0,0.0
29/05/2022,00:31:36,0.000,0.0,0.0,0.0
29/05/2022,00:32:37,0.001,0.0,0.0,0.0
29/05/2022,00:33:37,0.001,0.0,0.0,0.0
29/05/2022,00:34:37,0.000,0.0,0.0,0.0
29/05/2022,00:35:37,0.000,0.0,0.0,0.0
29/05/2022,00:36:37,0.001,0.0,0.0,0.0
29/05/2022,00:37:36,0.000,0.0,0.0,0.0
29/05/2022,00:38:37,0.000,0.0,0.0,0.0
29/05/2022,00:39:36,0.000,0.0,0.0,0.0
29/05/2022,00:40:36,0.001,0.0,0.0,0.0
29/05/2022,00:41:37,0.001,0.0,0.0,0.0
29/05/2022,00:42:36,0.001,0.0,0.0,0.0
29/05/2022,00:43:45,0.001,0.0,0.0,0.0
29/05/2022,00:44:37,0.000,0.0,0.0,0.0
29/05/2022,00:45:45,0.001,0.0,0.0,0.0
29/05/2022,00:46:45,0.000,0.0,0.0,0.0
29/05/2022,00:47:37,0.001,0.0,0.0,0.0
29/05/2022,00:48:36,-0.000,0.0,0.0,0.0
29/05/2022,00:49:36,0.001,0.0,0.0,0.0
29/05/2022,00:50:37,-0.000,0.0,0.0,0.0
29/05/2022,00:51:37,0.001,0.0,0.0,0.0
29/05/2022,00:52:45,0.000,0.0,0.0,0.0
29/05/2022,00:53:37,0.001,0.0,0.0,0.0
29/05/2022,00:54:37,0.001,0.0,0.0,0.0
29/05/2022,00:55:37,0.001,0.0,0.0,0.0
29/05/2022,00:56:36,0.001,0.0,0.0,0.0
29/05/2022,00:57:37,0.001,0.0,0.0,0.0
29/05/2022,00:58:37,0.001,0.0,0.0,0.0
29/05/2022,00:59:37,0.001,0.0,0.0,0.0
29/05/2022,01:00:36,0.001,0.0,0.0,0.0
29/05/2022,01:01:28,-0.000,0.0,0.0,0.0
29/05/2022,01:02:38,0.001,0.0,0.0,0.0
29/05/2022,01:03:36,0.001,0.0,0.0,0.0
29/05/2022,01:04:37,0.001,0.0,0.0,0.0
29/05/2022,01:05:36,0.001,0.0,0.0,0.0
29/05/2022,01:06:36,0.001,0.0,0.0,0.0
29/05/2022,01:07:36,0.001,0.0,0.0,0.0
29/05/2022,01:08:45,0.001,0.0,0.0,0.0
29/05/2022,01:09:37,0.001,0.0,0.0,0.0
29/05/2022,01:10:37,0.000,0.0,0.0,0.0
29/05/2022,01:11:36,0.001,0.0,0.0,0.0
29/05/2022,01:12:37,0.001,0.0,0.0,0.0
29/05/2022,01:13:36,0.001,0.0,0.0,0.0
29/05/2022,01:14:36,0.000,0.0,0.0,0.0
29/05/2022,01:15:37,0.001,0.0,0.0,0.0
29/05/2022,01:16:37,0.001,0.0,0.0,0.0
29/05/2022,01:17:36,0.001,0.0,0.0,0.0
29/05/2022,01:18:36,0.001,0.0,0.0,0.0
29/05/2022,01:19:37,0.001,0.0,0.0,0.0
29/05/2022,01:20:45,0.001,0.0,0.0,0.0
29/05/2022,01:22:37,0.001,0.0,0.0,0.0
29/05/2022,01:23:37,0.001,0.0,0.0,0.0
29/05/2022,01:24:36,0.001,0.0,0.0,0.0
29/05/2022,01:25:37,0.001,0.0,0.0,0.0
29/05/2022,01:26:37,0.001,0.0,0.0,0.0
29/05/2022,01:27:37,0.000,0.0,0.0,0.0
29/05/2022,01:28:37,0.001,0.0,0.0,0.0
29/05/2022,01:29:36,0.001,0.0,0.0,0.0
29/05/2022,01:30:37,0.001,0.0,0.0,0.0
29/05/2022,01:31:37,0.001,0.0,0.0,0.0
29/05/2022,01:32:36,0.001,0.0,0.0,0.0
29/05/2022,01:33:45,0.001,0.0,0.0,0.0
29/05/2022,01:34:37,0.001,0.0,0.0,0.0
29/05/2022,01:35:37,0.001,0.0,0.0,0.0
29/05/2022,01:36:36,0.001,0.0,0.0,0.0
29/05/2022,01:37:37,0.001,0.0,0.0,0.0
29/05/2022,01:38:37,0.001,0.0,0.0,0.0
29/05/2022,01:39:37,0.001,0.0,0.0,0.0
29/05/2022,01:40:36,0.000,0.0,0.0,0.0
29/05/2022,01:41:37,0.001,0.0,0.0,0.0
29/05/2022,01:42:37,0.001,0.0,0.0,0.0
29/05/2022,01:43:37,0.000,0.0,0.0,0.0
29/05/2022,01:44:37,0.001,0.0,0.0,0.0
29/05/2022,01:45:37,0.001,0.0,0.0,0.0
29/05/2022,01:46:36,0.001,0.0,0.0,0.0
29/05/2022,01:47:37,0.001,0.0,0.0,0.0
29/05/2022,01:48:37,0.001,0.0,0.0,0.0
29/05/2022,01:49:45,0.000,0.0,0.0,0.0
29/05/2022,01:50:36,-0.000,0.0,0.0,0.0
29/05/2022,01:51:37,-0.000,0.0,0.0,0.0
29/05/2022,01:52:37,0.001,0.0,0.0,0.0
29/05/2022,01:53:37,-0.000,0.0,0.0,0.0
29/05/2022,01:54:37,0.001,0.0,0.0,0.0
29/05/2022,01:55:37,0.001,0.0,0.0,0.0
29/05/2022,01:56:37,0.001,0.0,0.0,0.0
29/05/2022,01:57:37,0.001,0.0,0.0,0.0
29/05/2022,01:58:37,0.001,0.0,0.0,0.0
29/05/2022,01:59:45,0.001,0.0,0.0,0.0
29/05/2022,02:00:37,0.001,0.0,0.0,0.0
29/05/2022,02:01:37,-0.000,0.0,0.0,0.0
29/05/2022,02:02:37,0.001,0.0,0.0,0.0
29/05/2022,02:03:36,-0.000,0.0,0.0,0.0
29/05/2022,02:04:37,0.001,0.0,0.0,0.0
29/05/2022,02:05:37,0.001,0.0,0.0,0.0
29/05/2022,02:06:37,0.001,0.0,0.0,0.0
29/05/2022,02:07:37,0.001,0.0,0.0,0.0
29/05/2022,02:08:36,0.001,0.0,0.0,0.0
29/05/2022,02:09:36,0.001,0.0,0.0,0.0
29/05/2022,02:10:36,0.001,0.0,0.0,0.0
29/05/2022,02:11:37,0.001,0.0,0.0,0.0
29/05/2022,02:12:37,0.001,0.0,0.0,0.0
29/05/2022,02:13:37,0.000,0.0,0.0,0.0
29/05/2022,02:14:37,0.001,0.0,0.0,0.0
29/05/2022,02:15:45,0.001,0.0,0.0,0.0
29/05/2022,02:16:36,0.001,0.0,0.0,0.0
29/05/2022,02:17:52,0.001,0.0,0.0,0.0
29/05/2022,02:19:45,0.001,0.0,0.0,0.0
29/05/2022,02:21:38,0.001,0.0,0.0,0.0
29/05/2022,02:22:37,0.001,0.0,0.0,0.0
29/05/2022,02:23:37,0.001,0.0,0.0,0.0
29/05/2022,02:24:36,-0.000,0.0,0.0,0.0
29/05/2022,02:25:37,0.001,0.0,0.0,0.0
29/05/2022,02:26:36,0.001,0.0,0.0,0.0
29/05/2022,02:27:36,0.001,0.0,0.0,0.0
29/05/2022,02:28:37,0.000,0.0,0.0,0.0
29/05/2022,02:29:36,0.001,0.0,0.0,0.0
29/05/2022,02:30:36,0.001,0.0,0.0,0.0
29/05/2022,02:31:37,0.000,0.0,0.0,0.0
29/05/2022,02:32:37,0.001,0.0,0.0,0.0
29/05/2022,02:33:37,0.001,0.0,0.0,0.0
29/05/2022,02:34:36,0.001,0.0,0.0,0.0
29/05/2022,02:35:37,-0.000,0.0,0.0,0.0
29/05/2022,02:36:37,0.001,0.0,0.0,0.0
29/05/2022,02:37:37,0.001,0.0,0.0,0.0
29/05/2022,02:38:36,0.001,0.0,0.0,0.0
29/05/2022,02:39:37,0.001,0.0,0.0,0.0
29/05/2022,02:40:37,0.001,0.0,0.0,0.0
29/05/2022,02:41:36,0.001,0.0,0.0,0.0
29/05/2022,02:42:37,0.001,0.0,0.0,0.0
29/05/2022,02:43:45,0.001,0.0,0.0,0.0
29/05/2022,02:44:36,0.001,0.0,0.0,0.0
29/05/2022,02:45:37,0.001,0.0,0.0,0.0
29/05/2022,02:46:37,0.001,0.0,0.0,0.0
29/05/2022,02:47:37,0.000,0.0,0.0,0.0
29/05/2022,02:48:37,0.001,0.0,0.0,0.0
29/05/2022,02:49:37,0.001,0.0,0.0,0.0
29/05/2022,02:50:36,0.001,0.0,0.0,0.0
29/05/2022,02:51:37,0.000,0.0,0.0,0.0
29/05/2022,02:52:37,0.001,0.0,0.0,0.0
29/05/2022,02:53:37,0.000,0.0,0.0,0.0
29/05/2022,02:54:37,-0.000,0.0,0.0,0.0
29/05/2022,02:55:37,0.000,0.0,0.0,0.0
29/05/2022,02:56:45,0.000,0.0,0.0,0.0
29/05/2022,02:58:37,0.000,0.0,0.0,0.0
29/05/2022,02:59:37,0.001,0.0,0.0,0.0
29/05/2022,03:00:37,0.001,0.0,0.0,0.0
29/05/2022,03:01:37,0.001,0.0,0.0,0.0
29/05/2022,03:02:37,0.001,0.0,0.0,0.0
29/05/2022,03:03:36,0.000,0.0,0.0,0.0
29/05/2022,03:04:36,0.000,0.0,0.0,0.0
29/05/2022,03:05:36,0.000,0.0,0.0,0.0
29/05/2022,03:06:46,0.000,0.0,0.0,0.0
29/05/2022,03:08:37,0.001,0.0,0.0,0.0
29/05/2022,03:09:45,0.000,0.0,0.0,0.0
29/05/2022,03:10:37,0.000,0.0,0.0,0.0
29/05/2022,03:11:28,0.000,0.0,0.0,0.0
29/05/2022,03:12:38,0.001,0.0,0.0,0.0
29/05/2022,03:13:36,0.000,0.0,0.0,0.0
29/05/2022,03:14:37,0.000,0.0,0.0,0.0
29/05/2022,03:15:36,0.001,0.0,0.0,0.0
29/05/2022,03:16:37,0.001,0.0,0.0,0.0
29/05/2022,03:17:37,0.000,0.0,0.0,0.0
29/05/2022,03:18:37,0.001,0.0,0.0,0.0
29/05/2022,03:19:45,0.000,0.0,0.0,0.0
29/05/2022,03:20:36,0.000,0.0,0.0,0.0
29/05/2022,03:21:37,0.001,0.0,0.0,0.0
29/05/2022,03:22:37,0.001,0.0,0.0,0.0
29/05/2022,03:23:36,0.000,0.0,0.0,0.0
29/05/2022,03:24:37,0.000,0.0,0.0,0.0
29/05/2022,03:25:36,0.000,0.0,0.0,0.0
29/05/2022,03:26:37,0.000,0.0,0.0,0.0
29/05/2022,03:27:37,0.001,0.0,0.0,0.0
29/05/2022,03:28:36,0.000,0.0,0.0,0.0
29/05/2022,03:29:45,0.000,0.0,0.0,0.0
29/05/2022,03:30:36,0.000,0.0,0.0,0.0
29/05/2022,03:31:37,0.001,0.0,0.0,0.0
29/05/2022,03:32:37,0.001,0.0,0.0,0.0
29/05/2022,03:33:38,0.001,0.0,0.0,0.0
29/05/2022,03:34:36,0.000,0.0,0.0,0.0
29/05/2022,03:35:36,0.000,0.0,0.0,0.0
29/05/2022,03:36:37,-0.001,0.0,0.0,0.0
29/05/2022,03:37:37,0.001,0.0,0.0,0.0
29/05/2022,03:38:37,0.000,0.0,0.0,0.0
29/05/2022,03:39:37,0.000,0.0,0.0,0.0
29/05/2022,03:40:36,-0.000,0.0,0.0,0.0
29/05/2022,03:41:38,-0.001,0.0,0.0,0.0
29/05/2022,03:42:37,0.001,0.0,0.0,0.0
29/05/2022,03:43:36,0.000,0.0,0.0,0.0
29/05/2022,03:44:38,0.000,0.0,0.0,0.0
29/05/2022,03:45:37,0.001,0.0,0.0,0.0
29/05/2022,03:46:37,0.001,0.0,0.0,0.0
29/05/2022,03:47:38,0.000,0.0,0.0,0.0
29/05/2022,03:48:37,0.001,0.0,0.0,0.0
29/05/2022,03:49:37,0.000,0.0,0.0,0.0
29/05/2022,03:50:37,0.001,0.0,0.0,0.0
29/05/2022,03:51:37,0.001,0.0,0.0,0.0
29/05/2022,03:52:37,0.001,0.0,0.0,0.0
29/05/2022,03:53:37,0.001,0.0,0.0,0.0
29/05/2022,03:54:45,0.001,0.0,0.0,0.0
29/05/2022,03:55:37,0.001,0.0,0.0,0.0
29/05/2022,03:56:36,0.001,0.0,0.0,0.0
29/05/2022,03:57:36,0.001,0.0,0.0,0.0
29/05/2022,03:58:37,0.001,0.0,0.0,0.0
29/05/2022,03:59:37,0.001,0.0,0.0,0.0
29/05/2022,04:00:37,0.001,0.0,0.0,0.0
29/05/2022,04:01:37,0.001,0.0,0.0,0.0
29/05/2022,04:02:37,0.001,0.0,0.0,0.0
29/05/2022,04:03:37,0.002,0.0,0.0,0.0
29/05/2022,04:04:45,0.001,0.0,0.0,0.0
29/05/2022,04:06:38,0.001,0.0,0.0,0.0
29/05/2022,04:07:46,0.001,0.0,0.0,0.0
29/05/2022,04:09:37,0.001,0.0,0.0,0.0
29/05/2022,04:10:37,0.002,0.0,0.0,0.0
29/05/2022,04:11:37,0.002,0.0,0.0,0.0
29/05/2022,04:12:37,0.002,0.0,0.0,0.0
29/05/2022,04:13:46,0.002,0.0,0.0,0.0
29/05/2022,04:15:37,0.003,0.0,0.0,0.0
29/05/2022,04:16:45,0.002,0.0,0.0,0.0
29/05/2022,04:17:37,0.002,0.0,0.0,0.0
29/05/2022,04:18:37,0.002,0.0,0.0,0.0
29/05/2022,04:19:37,0.002,0.0,0.0,0.0
29/05/2022,04:20:37,0.004,0.0,0.0,0.0
29/05/2022,04:21:37,0.003,0.0,0.0,0.0
29/05/2022,04:22:37,0.003,0.0,0.0,0.0
29/05/2022,04:23:37,0.003,0.0,0.0,0.0
29/05/2022,04:24:37,0.003,0.0,0.0,0.0
29/05/2022,04:25:37,0.003,0.0,0.0,0.0
29/05/2022,04:26:37,0.003,0.0,0.0,0.0
29/05/2022,04:27:37,0.004,0.0,0.0,0.0
29/05/2022,04:28:37,0.003,0.0,0.0,0.0
29/05/2022,04:29:37,0.004,0.0,0.0,0.0
29/05/2022,04:30:37,0.003,0.0,0.0,0.0
29/05/2022,04:31:37,0.003,0.0,0.0,0.0
29/05/2022,04:32:36,0.004,0.0,0.0,0.0
29/05/2022,04:33:37,0.004,0.0,0.0,0.0
29/05/2022,04:34:37,0.004,0.0,0.0,0.0
29/05/2022,04:35:37,0.004,0.0,0.0,0.0
29/05/2022,04:36:37,0.004,0.0,0.0,0.0
29/05/2022,04:37:37,0.004,0.0,0.0,0.0
29/05/2022,04:38:37,0.005,0.0,0.0,0.0
29/05/2022,04:39:45,0.005,0.0,0.0,0.0
29/05/2022,04:40:36,0.005,0.0,0.0,0.0
29/05/2022,04:41:37,0.006,0.0,0.0,0.0
29/05/2022,04:42:37,0.007,0.0,0.0,0.0
29/05/2022,04:43:37,0.006,0.0,0.0,0.0
29/05/2022,04:44:37,0.007,0.0,0.0,0.0
29/05/2022,04:45:37,0.007,0.0,0.0,0.0
29/05/2022,04:46:36,0.007,0.0,0.0,0.0
29/05/2022,04:47:37,0.008,0.0,0.001,0.001
29/05/2022,04:48:37,0.010,0.0,0.001,0.0
29/05/2022,04:49:37,0.011,0.0,0.001,0.0
29/05/2022,04:50:37,0.010,0.0,0.001,0.0
29/05/2022,04:51:53,0.011,0.0,0.001,0.0
29/05/2022,04:53:37,0.011,0.0,0.002,0.001
29/05/2022,04:54:37,0.010,0.0,0.002,0.0
29/05/2022,04:55:37,0.012,0.0,0.002,0.0
29/05/2022,04:56:37,0.011,0.0,0.002,0.0
29/05/2022,04:57:37,0.013,0.0,0.002,0.0
29/05/2022,04:58:37,0.014,0.0,0.003,0.001
29/05/2022,04:59:37,0.014,0.0,0.003,0.0
29/05/2022,05:00:37,0.016,0.0,0.003,0.0
29/05/2022,05:01:37,0.017,0.0,0.003,0.0
29/05/2022,05:02:45,0.016,0.0,0.004,0.001
29/05/2022,05:03:37,0.018,0.0,0.004,0.0
29/05/2022,05:04:37,0.018,0.0,0.004,0.0
29/05/2022,05:05:46,0.018,0.0,0.005,0.001
29/05/2022,05:07:37,0.019,0.0,0.005,0.0
29/05/2022,05:08:37,0.019,0.0,0.005,0.0
29/05/2022,05:09:37,0.020,0.0,0.006,0.001
29/05/2022,05:10:37,0.021,0.0,0.006,0.0
29/05/2022,05:11:37,0.022,0.0,0.006,0.0
29/05/2022,05:12:45,0.023,0.0,0.007,0.001
29/05/2022,05:13:36,0.024,0.0,0.007,0.0
29/05/2022,05:14:37,0.027,0.0,0.008,0.001
29/05/2022,05:15:37,0.027,0.0,0.008,0.0
29/05/2022,05:16:37,0.028,0.0,0.009,0.001
29/05/2022,05:17:38,0.028,0.0,0.009,0.0
29/05/2022,05:18:46,0.030,0.0,0.01,0.001
29/05/2022,05:20:37,0.031,0.0,0.011,0.001
29/05/2022,05:21:37,0.032,0.0,0.011,0.0
29/05/2022,05:22:37,0.034,0.0,0.012,0.001
29/05/2022,05:23:37,0.035,0.0,0.012,0.0
29/05/2022,05:24:37,0.036,0.0,0.013,0.001
29/05/2022,05:25:37,0.037,0.0,0.013,0.0
29/05/2022,05:26:37,0.039,0.0,0.014,0.001
29/05/2022,05:27:46,0.038,0.0,0.015,0.001
29/05/2022,05:29:37,0.039,0.0,0.016,0.001
29/05/2022,05:30:37,0.038,0.0,0.017,0.001
29/05/2022,05:31:37,0.037,0.0,0.017,0.0
29/05/2022,05:32:37,0.035,0.0,0.018,0.001
29/05/2022,05:33:37,0.035,0.0,0.018,0.0
29/05/2022,05:34:37,0.033,0.0,0.019,0.001
29/05/2022,05:35:37,0.033,0.0,0.02,0.001
29/05/2022,05:36:38,0.034,0.0,0.02,0.0
29/05/2022,05:37:37,0.035,0.0,0.021,0.001
29/05/2022,05:38:37,0.036,0.0,0.021,0.0
29/05/2022,05:39:37,0.038,0.0,0.022,0.001
29/05/2022,05:40:45,0.041,0.0,0.023,0.001
29/05/2022,05:42:39,0.046,0.0,0.024,0.001
29/05/2022,05:43:37,0.049,0.0,0.025,0.001
29/05/2022,05:44:37,0.052,0.0,0.026,0.001
29/05/2022,05:45:37,0.055,0.0,0.026,0.0
29/05/2022,05:46:37,0.058,0.0,0.027,0.001
29/05/2022,05:47:37,0.060,0.0,0.028,0.001
29/05/2022,05:48:37,0.062,0.0,0.029,0.001
29/05/2022,05:49:37,0.064,0.0,0.03,0.001
29/05/2022,05:50:37,0.065,0.0,0.032,0.002
29/05/2022,05:51:37,0.069,0.0,0.033,0.001
29/05/2022,05:52:37,0.071,0.0,0.034,0.001
29/05/2022,05:53:45,0.071,0.0,0.035,0.001
29/05/2022,05:55:38,0.069,0.0,0.037,0.002
29/05/2022,05:56:45,0.068,0.0,0.039,0.002
29/05/2022,05:57:37,0.068,0.0,0.04,0.001
29/05/2022,05:58:37,0.065,0.0,0.041,0.001
29/05/2022,05:59:38,0.063,0.0,0.042,0.001
29/05/2022,06:00:38,0.062,0.0,0.043,0.001
29/05/2022,06:01:37,0.063,0.0,0.044,0.001
29/05/2022,06:02:37,0.063,0.0,0.045,0.001
29/05/2022,06:03:45,0.061,0.0,0.046,0.001
29/05/2022,06:04:37,0.058,0.0,0.047,0.001
29/05/2022,06:05:37,0.057,0.0,0.048,0.001
29/05/2022,06:06:37,0.061,0.0,0.049,0.001
29/05/2022,06:07:37,0.065,0.0,0.05,0.001
29/05/2022,06:08:37,0.071,0.0,0.051,0.001
29/05/2022,06:09:37,0.075,0.0,0.052,0.001
29/05/2022,06:10:37,0.077,0.0,0.054,0.002
29/05/2022,06:11:37,0.076,0.0,0.055,0.001
29/05/2022,06:12:37,0.073,0.0,0.056,0.001
29/05/2022,06:13:46,0.072,0.0,0.057,0.001
29/05/2022,06:14:37,0.071,0.0,0.059,0.002
29/05/2022,06:15:37,0.073,0.0,0.06,0.001
29/05/2022,06:16:37,0.074,0.0,0.061,0.001
29/05/2022,06:17:37,0.077,0.0,0.062,0.001
29/05/2022,06:18:37,0.079,0.0,0.064,0.002
29/05/2022,06:19:37,0.086,0.0,0.065,0.001
29/05/2022,06:20:37,0.088,0.0,0.066,0.001
29/05/2022,06:21:37,0.089,0.0,0.068,0.002
29/05/2022,06:22:37,0.089,0.0,0.069,0.001
29/05/2022,06:23:46,0.091,0.0,0.071,0.002
29/05/2022,06:24:37,0.095,0.0,0.072,0.001
29/05/2022,06:25:37,0.100,0.0,0.074,0.002
29/05/2022,06:26:45,0.106,0.0,0.076,0.002
29/05/2022,06:27:37,0.108,0.0,0.077,0.001
29/05/2022,06:28:37,0.111,0.0,0.079,0.002
29/05/2022,06:29:37,0.115,0.0,0.081,0.002
29/05/2022,06:30:37,0.120,0.0,0.083,0.002
29/05/2022,06:31:37,0.126,0.0,0.085,0.002
29/05/2022,06:32:37,0.129,0.0,0.087,0.002
29/05/2022,06:33:37,0.131,0.0,0.089,0.002
29/05/2022,06:34:37,0.135,0.0,0.092,0.003
29/05/2022,06:35:37,0.141,0.0,0.094,0.002
29/05/2022,06:36:37,0.147,0.0,0.096,0.002
29/05/2022,06:37:37,0.154,0.0,0.099,0.003
29/05/2022,06:38:37,0.154,0.0,0.101,0.002
29/05/2022,06:39:37,0.154,0.0,0.104,0.003
29/05/2022,06:40:37,0.156,0.0,0.107,0.003
29/05/2022,06:41:37,0.156,0.0,0.109,0.002
29/05/2022,06:42:37,0.163,0.0,0.112,0.003
29/05/2022,06:43:37,0.161,0.0,0.115,0.003
29/05/2022,06:44:37,0.146,0.0,0.117,0.002
29/05/2022,06:45:37,0.135,0.0,0.12,0.003
29/05/2022,06:46:37,0.129,0.0,0.122,0.002
29/05/2022,06:47:37,0.120,0.0,0.124,0.002
29/05/2022,06:48:37,0.118,0.0,0.126,0.002
29/05/2022,06:49:38,0.114,0.0,0.128,0.002
29/05/2022,06:50:38,0.122,0.0,0.13,0.002
29/05/2022,06:51:37,0.126,0.0,0.132,0.002
29/05/2022,06:52:37,0.137,0.0,0.134,0.002
29/05/2022,06:53:38,0.147,0.0,0.136,0.002
29/05/2022,06:54:37,0.156,0.0,0.139,0.003
29/05/2022,06:55:54,0.164,0.0,0.142,0.003
29/05/2022,06:57:38,0.182,0.0,0.147,0.005
29/05/2022,06:58:37,0.202,0.0,0.15,0.003
29/05/2022,06:59:38,0.192,0.0,0.154,0.004
29/05/2022,07:00:38,0.194,0.0,0.157,0.003
29/05/2022,07:01:37,0.192,0.0,0.16,0.003
29/05/2022,07:02:37,0.190,0.0,0.163,0.003
29/05/2022,07:03:45,0.187,0.0,0.167,0.004
29/05/2022,07:04:36,0.186,0.0,0.169,0.002
29/05/2022,07:05:45,0.186,0.0,0.173,0.004
29/05/2022,07:07:38,0.185,0.0,0.179,0.006
29/05/2022,07:08:37,0.182,0.0,0.182,0.003
29/05/2022,07:09:37,0.181,0.0,0.185,0.003
29/05/2022,07:10:38,0.182,0.0,0.188,0.003
29/05/2022,07:11:37,0.184,0.0,0.191,0.003
29/05/2022,07:12:37,0.190,0.0,0.194,0.003
29/05/2022,07:13:37,0.196,0.0,0.197,0.003
29/05/2022,07:14:31,0.199,0.0,0.2,0.003
29/05/2022,07:15:38,0.201,0.0,0.204,0.004
29/05/2022,07:16:37,0.201,0.0,0.207,0.003
29/05/2022,07:17:37,0.201,0.0,0.21,0.003
29/05/2022,07:18:37,0.202,0.0,0.214,0.004
29/05/2022,07:19:37,0.204,0.0,0.217,0.003
29/05/2022,07:20:37,0.200,0.0,0.221,0.004
29/05/2022,07:21:37,0.195,0.0,0.224,0.003
29/05/2022,07:22:37,0.188,0.0,0.227,0.003
29/05/2022,07:23:37,0.183,0.0,0.23,0.003
29/05/2022,07:24:37,0.187,0.0,0.233,0.003
29/05/2022,07:25:37,0.194,0.0,0.236,0.003
29/05/2022,07:26:37,0.205,0.0,0.24,0.004
29/05/2022,07:27:37,0.218,1.0,0.243,0.003
29/05/2022,07:28:37,0.231,1.0,0.247,0.004
29/05/2022,07:29:37,0.243,1.0,0.251,0.004
29/05/2022,07:30:37,0.248,1.0,0.255,0.004
29/05/2022,07:31:37,0.251,1.0,0.259,0.004
29/05/2022,07:32:38,0.254,1.0,0.264,0.005
29/05/2022,07:33:38,0.264,1.0,0.268,0.004
29/05/2022,07:34:37,0.283,1.0,0.272,0.004
29/05/2022,07:35:37,0.308,1.0,0.277,0.005
29/05/2022,07:36:37,0.332,1.0,0.283,0.006
29/05/2022,07:37:37,0.342,1.0,0.288,0.005
29/05/2022,07:38:37,0.342,1.0,0.294,0.006
29/05/2022,07:39:37,0.343,1.0,0.3,0.006
29/05/2022,07:40:37,0.353,1.0,0.306,0.006
29/05/2022,07:41:38,0.372,1.0,0.312,0.006
29/05/2022,07:42:37,0.380,1.0,0.318,0.006
29/05/2022,07:43:37,0.403,1.0,0.324,0.006
29/05/2022,07:44:37,0.536,1.0,0.333,0.009
29/05/2022,07:45:37,0.529,1.0,0.341,0.008
29/05/2022,07:46:37,0.579,1.0,0.35,0.009
29/05/2022,07:47:37,0.506,1.0,0.36,0.01
29/05/2022,07:48:37,0.568,1.0,0.368,0.008
29/05/2022,07:49:38,0.591,1.0,0.378,0.01
29/05/2022,07:50:37,0.541,1.0,0.388,0.01
29/05/2022,07:51:37,0.616,1.0,0.397,0.009
29/05/2022,07:52:37,0.623,1.0,0.407,0.01
29/05/2022,07:53:38,0.633,1.0,0.418,0.011
29/05/2022,07:54:37,0.634,1.0,0.428,0.01
29/05/2022,07:55:37,0.627,1.0,0.439,0.011
29/05/2022,07:56:37,0.653,2.0,0.449,0.01
29/05/2022,07:57:38,0.654,2.0,0.46,0.011
29/05/2022,07:58:38,0.661,2.0,0.471,0.011
29/05/2022,07:59:36,0.584,1.0,0.481,0.01
29/05/2022,08:00:38,0.667,2.0,0.491,0.01
29/05/2022,08:01:39,0.667,2.0,0.502,0.011
29/05/2022,08:02:45,0.675,2.0,0.515,0.013
29/05/2022,08:03:37,0.678,2.0,0.525,0.01
29/05/2022,08:04:37,0.683,2.0,0.536,0.011
29/05/2022,08:05:38,0.688,2.0,0.547,0.011
29/05/2022,08:06:37,0.696,2.0,0.558,0.011
29/05/2022,08:07:37,0.696,2.0,0.57,0.012
29/05/2022,08:08:37,0.717,2.0,0.582,0.012
29/05/2022,08:09:37,0.648,1.0,0.593,0.011
29/05/2022,08:10:37,0.735,2.0,0.604,0.011
29/05/2022,08:11:37,0.745,2.0,0.617,0.013
29/05/2022,08:12:37,0.750,2.0,0.63,0.013
29/05/2022,08:13:38,0.753,2.0,0.642,0.012
29/05/2022,08:14:37,0.763,2.0,0.655,0.013
29/05/2022,08:15:37,0.772,2.0,0.667,0.012
29/05/2022,08:16:37,0.784,2.0,0.68,0.013
29/05/2022,08:17:38,0.792,2.0,0.693,0.013
29/05/2022,08:18:38,0.800,2.0,0.707,0.014
29/05/2022,08:19:37,0.810,2.0,0.72,0.013
29/05/2022,08:20:37,0.761,2.0,0.733,0.013
29/05/2022,08:21:37,0.831,2.0,0.747,0.014
29/05/2022,08:22:38,0.840,2.0,0.761,0.014
29/05/2022,08:23:37,0.838,2.0,0.775,0.014
29/05/2022,08:24:37,0.834,2.0,0.789,0.014
29/05/2022,08:25:46,0.720,2.0,0.804,0.015
29/05/2022,08:27:38,0.729,2.0,0.828,0.024
29/05/2022,08:28:38,0.671,2.0,0.84,0.012
29/05/2022,08:29:37,0.687,2.0,0.852,0.012
29/05/2022,08:30:37,0.748,2.0,0.866,0.014
29/05/2022,08:31:37,0.614,1.0,0.876,0.01
29/05/2022,08:32:37,0.891,2.0,0.888,0.012
29/05/2022,08:33:37,0.912,2.0,0.902,0.014
29/05/2022,08:34:39,0.922,2.0,0.918,0.016
29/05/2022,08:35:38,0.936,2.0,0.934,0.016
29/05/2022,08:36:38,0.934,2.0,0.949,0.015
29/05/2022,08:37:38,0.934,2.0,0.965,0.016
29/05/2022,08:38:37,0.626,1.0,0.976,0.011
29/05/2022,08:39:38,0.938,2.0,0.992,0.016
29/05/2022,08:40:37,0.942,2.0,1.007,0.015
29/05/2022,08:41:37,0.970,2.0,1.023,0.016
29/05/2022,08:42:39,0.980,2.0,1.039,0.016
29/05/2022,08:43:37,0.995,2.0,1.055,0.016
29/05/2022,08:44:46,1.027,2.0,1.074,0.019
29/05/2022,08:45:37,1.054,2.0,1.089,0.015
29/05/2022,08:46:46,1.055,2.0,1.108,0.019
29/05/2022,08:47:38,1.047,2.0,1.123,0.015
29/05/2022,08:48:37,1.056,2.0,1.14,0.017
29/05/2022,08:49:37,1.058,2.0,1.157,0.017
29/05/2022,08:50:45,1.058,2.0,1.178,0.021
29/05/2022,08:51:37,1.027,2.0,1.191,0.013
29/05/2022,08:52:37,0.978,2.0,1.208,0.017
29/05/2022,08:53:37,1.106,3.0,1.223,0.015
29/05/2022,08:54:37,1.079,2.0,1.241,0.018
29/05/2022,08:55:37,0.834,2.0,1.257,0.016
29/05/2022,08:56:38,1.116,3.0,1.274,0.017
29/05/2022,08:57:46,0.919,2.0,1.292,0.018
29/05/2022,08:59:38,1.078,2.0,1.318,0.026
29/05/2022,09:00:46,1.064,2.0,1.339,0.021
29/05/2022,09:02:38,1.060,2.0,1.373,0.034
29/05/2022,09:03:38,1.153,3.0,1.392,0.019
29/05/2022,09:04:37,1.160,3.0,1.411,0.019
29/05/2022,09:05:37,0.772,2.0,1.429,0.018
29/05/2022,09:06:37,1.175,3.0,1.442,0.013
29/05/2022,09:07:37,1.165,3.0,1.461,0.019
29/05/2022,09:08:37,0.754,2.0,1.479,0.018
29/05/2022,09:09:37,0.656,2.0,1.49,0.011
29/05/2022,09:10:38,0.662,2.0,1.504,0.014
29/05/2022,09:11:38,0.645,1.0,1.515,0.011
29/05/2022,09:12:37,0.705,2.0,1.526,0.011
29/05/2022,09:13:45,1.150,3.0,1.547,0.021
29/05/2022,09:14:38,0.724,2.0,1.56,0.013
29/05/2022,09:15:37,0.748,2.0,1.572,0.012
29/05/2022,09:16:46,1.220,3.0,1.591,0.019
29/05/2022,09:18:38,1.249,3.0,1.623,0.032
29/05/2022,09:19:38,1.241,3.0,1.643,0.02
29/05/2022,09:20:38,1.139,3.0,1.662,0.019
29/05/2022,09:21:37,0.982,2.0,1.68,0.018
29/05/2022,09:22:37,0.712,2.0,1.693,0.013
29/05/2022,09:23:37,1.169,3.0,1.71,0.017
29/05/2022,09:24:37,1.262,3.0,1.73,0.02
29/05/2022,09:25:37,1.275,3.0,1.751,0.021
29/05/2022,09:26:38,0.810,2.0,1.766,0.015
29/05/2022,09:27:38,1.332,3.0,1.785,0.019
29/05/2022,09:28:37,1.349,3.0,1.807,0.022
29/05/2022,09:29:37,1.354,3.0,1.829,0.022
29/05/2022,09:30:37,1.312,3.0,1.852,0.023
29/05/2022,09:31:37,1.278,3.0,1.873,0.021
29/05/2022,09:32:37,1.202,3.0,1.894,0.021
29/05/2022,09:33:37,1.133,3.0,1.913,0.019
29/05/2022,09:34:37,1.126,3.0,1.931,0.018
29/05/2022,09:35:37,1.139,3.0,1.95,0.019
29/05/2022,09:36:38,1.160,3.0,1.969,0.019
29/05/2022,09:37:37,1.129,3.0,1.987,0.018
29/05/2022,09:38:37,1.091,3.0,2.005,0.018
29/05/2022,09:39:38,1.148,3.0,2.024,0.019
29/05/2022,09:40:45,0.942,2.0,2.044,0.02
29/05/2022,09:41:36,0.768,2.0,2.057,0.013
29/05/2022,09:42:38,0.586,1.0,2.068,0.011
29/05/2022,09:43:38,0.533,1.0,2.077,0.009
29/05/2022,09:44:37,0.504,1.0,2.085,0.008
29/05/2022,09:45:39,0.509,1.0,2.094,0.009
29/05/2022,09:46:38,0.538,1.0,2.103,0.009
29/05/2022,09:47:46,0.597,1.0,2.113,0.01
29/05/2022,09:49:38,0.722,2.0,2.134,0.021
29/05/2022,09:50:37,0.770,2.0,2.147,0.013
29/05/2022,09:51:38,0.845,2.0,2.16,0.013
29/05/2022,09:52:37,1.153,3.0,2.177,0.017
29/05/2022,09:53:37,0.990,2.0,2.194,0.017
29/05/2022,09:54:38,1.045,2.0,2.21,0.016
29/05/2022,09:55:38,1.238,3.0,2.229,0.019
29/05/2022,09:56:37,1.200,3.0,2.249,0.02
29/05/2022,09:57:46,1.081,2.0,2.272,0.023
29/05/2022,09:59:38,1.273,3.0,2.305,0.033
29/05/2022,10:00:38,1.358,3.0,2.326,0.021
29/05/2022,10:01:37,1.096,3.0,2.345,0.019
29/05/2022,10:02:37,1.278,3.0,2.366,0.021
29/05/2022,10:03:38,1.111,3.0,2.386,0.02
29/05/2022,10:04:37,1.127,3.0,2.405,0.019
29/05/2022,10:05:38,1.070,2.0,2.422,0.017
29/05/2022,10:06:38,0.974,2.0,2.441,0.019
29/05/2022,10:07:37,0.862,2.0,2.456,0.015
29/05/2022,10:08:37,0.803,2.0,2.469,0.013
29/05/2022,10:09:37,0.796,2.0,2.482,0.013
29/05/2022,10:10:37,0.846,2.0,2.496,0.014
29/05/2022,10:11:46,0.956,2.0,2.514,0.018
29/05/2022,10:13:39,1.336,3.0,2.55,0.036
29/05/2022,10:14:37,1.378,3.0,2.572,0.022
29/05/2022,10:15:37,1.045,2.0,2.591,0.019
29/05/2022,10:16:45,1.083,2.0,2.611,0.02
29/05/2022,10:17:37,1.291,3.0,2.629,0.018
29/05/2022,10:18:37,0.940,2.0,2.647,0.018
29/05/2022,10:19:46,0.852,2.0,2.665,0.018
29/05/2022,10:21:39,0.833,2.0,2.69,0.025
29/05/2022,10:22:37,0.866,2.0,2.705,0.015
29/05/2022,10:23:38,0.931,2.0,2.72,0.015
29/05/2022,10:24:37,0.848,2.0,2.735,0.015
29/05/2022,10:25:38,0.883,2.0,2.749,0.014
29/05/2022,10:26:37,1.029,2.0,2.766,0.017
29/05/2022,10:27:38,1.109,3.0,2.784,0.018
29/05/2022,10:28:37,1.230,3.0,2.807,0.023
29/05/2022,10:29:46,1.258,3.0,2.832,0.025
29/05/2022,10:31:38,1.240,3.0,2.868,0.036